Flag for Germany Weather past 2 weeks in Andernach, Rhineland-Palatinate, Germany

Now
34 °F

Fog.


Feels Like: 28 °F
Forecast: 31 / 42 °F
Wind: 7 mph from West

Location: Buechel

Current Time: Jan 27, 2015 at 10:48:57 PM

Latest Report: Jan 27, 2015 at 9:57 PM


Visibility: 2 mi

Pressure: 30.15 "Hg

Humidity: 93%

Dew point: 32 °F

Location of AndernachLocation

Historic Weather in Andernach — Graph

°F

Andernach temperature yesterday

Maximum temperature yesterday: 36 °F (at 8:20 PM)
Minimum temperature yesterday: 30 °F (at 1:20 AM)
Average temperature yesterday: 32 °F

Past Weeks' High & Low Weather Summary

 TemperatureHumidityPressure
High48 °F (Jan 13, 2:20 PM)100% (Jan 14, 1:00 PM)30.39 "Hg (Jan 14, 1:00 PM)
Low23 °F (Jan 23, 11:20 PM)62% (Jan 13, 1:20 PM)29.53 "Hg (Jan 15, 3:20 PM)
Average32 °F90%29.94 "Hg
* Reported Jan 12 9:20 PM — Jan 27 9:20 PM, Andernach, Weather by CustomWeather, © 2014

Note: Actual official high and low records may vary slightly from our data, if they occured in-between our weather recording intervals... More about our weather records

Advertising

Andernach weather history for previous 24 hours

 ConditionsComfort  
Time TempWeatherWind HumidityBarometerVisibility
9:20 PM
Jan 27
34 °FLight snow. Fog.6 mph93%30.18 "Hg2 mi
8:20 PM34 °FLight rain. Fog.6 mph93%30.18 "Hg2 mi
7:20 PM34 °FPassing clouds.6 mph93%30.15 "Hg5 mi
6:20 PM34 °FPartly cloudy.7 mph93%30.15 "Hg5 mi
5:20 PM34 °FPartly cloudy.8 mph93%30.15 "Hg6 mi
4:20 PM34 °FBroken clouds.7 mph93%30.15 "HgN/A
3:20 PM34 °FBroken clouds.6 mph93%30.15 "Hg4 mi
2:58 PM34 °FSnow. Fog.5 mph93%30.15 "Hg1 mi
2:20 PM36 °FPartly sunny.9 mph81%30.15 "HgN/A
1:20 PM36 °FPartly sunny.9 mph81%30.15 "HgN/A
12:20 PM36 °FPartly sunny.8 mph87%30.15 "HgN/A
11:48 AM34 °FFog.8 mph93%30.18 "Hg3 mi
11:20 AM34 °FPartly sunny.9 mph93%30.18 "Hg5 mi
11:01 AM34 °FSnow flurries. Fog.10 mph93%30.18 "Hg2 mi
10:20 AM34 °FLight snow. Fog.7 mph87%30.18 "Hg2 mi
9:20 AM32 °FPartly sunny.8 mph93%30.15 "HgN/A
8:20 AM32 °FPartly sunny.8 mph93%30.15 "Hg5 mi
7:20 AM34 °FLight snow. Fog.7 mph87%30.15 "Hg3 mi
6:20 AM34 °FLight snow. Fog.8 mph87%30.15 "Hg3 mi
5:20 AM34 °FSnow. Fog.8 mph87%30.12 "Hg2 mi
4:47 AM34 °FPartly cloudy.9 mph87%30.12 "HgN/A
4:20 AM34 °FPartly cloudy.9 mph87%30.12 "HgN/A
3:20 AM34 °FChilly.8 mph87%30.12 "HgN/A
2:20 AM34 °FChilly.10 mph93%30.09 "HgN/A
1:20 AM34 °FChilly.7 mph93%30.09 "Hg1 mi
12:20 AM34 °FChilly.13 mph93%30.09 "Hg6 mi
11:20 PM
Jan 26
34 °FChilly.10 mph93%30.09 "HgN/A
10:20 PM36 °FChilly.13 mph93%30.07 "HgN/A
Weather by CustomWeather, © 2014

See weather overviewHow to use our weather pages